{"data":{"norad_id":40536,"intl_designator":"2015-014A","name":"KOMPSAT-3A","alt_names":[],"object_type":"PAYLOAD","status":"ACTIVE","operator":null,"country":"SKOR","launch_date":"2015-03-25","launch_site_code":"DLS","launch_vehicle":null,"mission":null,"orbit_class":"UNKNOWN","rcs_meters":5.363,"size_class":null,"mass_kg":null,"dimensions":null,"purposes":["earth_obs"],"wikipedia_slug":null,"has_3d_model":false,"image_url":null,"decayed_at":null,"tle_current":{"epoch":"2026-05-25T05:53:37.634208Z","epoch_age_seconds":47124,"freshness":"FRESH","line1":"1 40536U 15014A   26145.24557447  .00023713  00000+0  35948-3 0  9992","line2":"2 40536  97.6887 134.9502 0054982 259.7505  99.7544 15.52847699618256","mean_motion":15.52847699,"eccentricity":0.0054982,"inclination_deg":97.6887,"raan_deg":134.9502,"arg_perigee_deg":259.7505,"mean_anomaly_deg":99.7544,"bstar":0.00035948,"rev_number":61825,"period_min":92.732854672569,"perigee_km":371.10250053383,"apogee_km":445.73015555031,"semimajor_km":6786.5533280421,"source":"CELESTRAK","updated_at":"2026-05-25T13:38:12.788309Z"}}}